SCP
0 0 0 0 0 0 1 1 1 0 0 1 1 1 1 1 0 0 0 0 0 0 0 0 0 0 0 0 0 0 0 0 0 0 0 0 0 0
0 0 0 0 0 0 0 1 1 1 0 1 1 1 1 1 0 0 0 0 0 0 0 0 0 0 0 0 0 0 0 0 0 0 0 0 0 0
0 0 0 0 0 0 0 0 1 1 0 1 1 1 1 1 1 0 0 0 0 0 0 0 0 0 0 0 0 0 0 0 0 0 0 0 0 0
0 0 0 0 0 0 0 0 0 0 0 1 1 1 1 1 1 0 0 0 0 0 0 0 0 0 0 0 0 0 0 0 0 0 0 0 0 0
0 0 0 0 0 0 0 0 0 0 0 1 1 1 1 1 1 1 0 0 0 0 0 0 0 0 0 0 0 0 0 0 0 0 0 0 0 0
0 0 0 0 0 0 0 0 0 0 0 0 0 1 1 1 1 1 0 0 0 0 0 0 0 0 0 0 0 0 0 0 0 0 0 0 0 0
0 0 0 0 0 0 0 0 0 0 0 0 0 0 0 1 1 0 0 0 0 0 0 0 0 0 0 0 0 0 0 0 0 0 0 0 0 0
0 0 0 0 0 0 0 0 0 0 0 0 0 0 0 0 0 0 0 0 0 0 0 0 0 0 0 0 0 0 0 0 0 0 0 0 0 0
0 0 0 0 0 0 0 0 0 0 0 0 0 0 0 0 0 0 0 0 0 0 0 0 0 0 0 0 0 0 0 0 0 0 0 0 0 0
0 0 0 0 0 0 0 0 0 0 0 0 0 0 0 0 0 0 0 0 0 0 0 0 0 0 0 0 0 0 0 0 0 0 0 0 0 0
0 0 0 0 0 0 0 0 0 0 0 0 0 0 0 0 0 0 0 0 0 0 0 0 0 0 0 0 0 0 0 0 0 0 0 0 0 0
0 0 0 0 0 0 0 0 0 0 0 0 0 0 0 0 0 0 0 0 0 0 0 0 0 0 0 0 0 0 0 0 0 0 0 0 0 0
0 0 0 0 0 0 0 0 0 0 0 0 0 0 0 0 0 0 0 0 0 0 0 0 0 0 0 0 0 0 0 0 0 0 0 0 0 0
0 0 0 0 0 0 0 0 0 0 0 0 0 0 0 0 0 0 0 0 0 0 0 0 0 0 0 0 0 0 0 0 0 0 0 0 0 0
0 0 0 0 0 0 0 0 0 0 0 0 0 0 0 0 0 0 0 0 0 0 0 0 0 0 0 0 0 0 0 0 0 0 0 0 0 0
0 0 0 0 0 0 0 0 0 0 0 0 0 0 0 0 0 0 0 0 0 0 0 0 0 0 0 0 0 0 0 0 0 0 0 0 0 0
0 0 0 0 0 0 0 0 0 0 0 0 0 0 0 0 0 0 0 0 0 0 0 0 0 0 0 0 0 0 0 0 0 0 0 0 0 0
0 0 0 0 0 0 0 0 0 0 0 0 0 0 0 0 0 0 0 0 0 0 0 0 0 0 0 0 0 0 0 0 0 0 0 0 0 0
0 0 0 0 0 0 0 0 0 0 0 0 0 0 0 0 0 0 0 0 0 0 0 0 0 0 0 0 0 0 0 0 0 0 0 0 0 0
0 0 0 0 0 0 0 0 0 0 0 0 0 0 0 0 0 0 0 0 0 0 0 0 0 0 0 0 0 0 0 0 0 0 0 0 0 0
0 0 0 0 0 0 0 0 0 0 0 0 0 0 0 0 0 0 0 0 0 0 0 0 0 0 0 0 0 0 0 0 0 0 0 0 0 0
0 0 0 0 0 0 0 0 0 0 0 0 0 0 0 0 0 0 0 0 0 0 0 0 0 0 0 0 0 0 0 0 0 0 0 0 0 0
0 0 0 0 0 0 0 0 0 0 0 0 0 0 0 0 0 0 0 0 0 0 0 0 0 0 0 0 0 0 0 0 0 0 0 0 0 0
Wind_Speed
4 5 4 4 4 4 4 4 4 4 4 4 3 4 4 5 10 6 7 10 10 10 9 9 9 9 9 9 9 9 9 10 10 11 12 14 16 17
4 5 4 4 4 5 5 4 4 3 4 3 3 3 5 7 9 6 6 12 10 9 9 8 8 8 8 8 8 8 8 9 10 11 11 12 13 14
6 6 6 5 4 4 4 4 4 3 5 3 2 2 3 5 6 5 6 6 6 9 9 8 8 7 7 7 7 7 7 8 8 9 10 10 11 12
7 6 6 5 6 4 4 5 4 4 4 4 3 2 3 4 6 5 5 5 5 7 9 8 7 7 7 6 6 6 6 6 7 7 7 8 9 10
7 7 7 6 6 4 4 5 4 4 3 4 4 3 3 4 5 5 4 3 4 6 7 7 6 6 6 5 5 5 5 5 5 5 5 5 6 7
7 7 6 6 6 6 5 4 4 3 3 3 4 4 4 5 5 5 4 3 4 4 5 6 6 6 5 5 5 5 4 4 3 3 4 4 5 6
7 7 7 7 7 6 5 5 4 3 3 3 4 3 4 5 5 4 5 4 3 4 5 4 4 3 3 4 4 5 4 4 4 3 3 3 4 4
7 6 7 7 9 9 9 8 6 5 4 3 3 4 4 5 4 5 5 5 4 4 4 4 3 3 3 3 5 6 6 6 6 6 5 5 5 5
7 6 8 9 9 8 9 11 10 10 8 5 4 3 3 3 3 4 5 5 3 5 5 4 3 4 4 5 7 7 7 7 8 8 8 8 8 8
8 7 7 7 7 6 6 7 8 8 9 8 6 5 4 2 2 3 3 3 3 4 4 4 3 4 5 5 7 8 8 9 10 10 11 11 11 10
8 8 8 8 10 9 6 6 6 6 9 11 9 8 8 6 4 2 3 5 4 4 3 4 5 4 4 4 5 8 9 9 10 11 12 13 13 12
7 8 11 10 10 11 7 6 6 6 5 6 7 8 8 8 9 7 6 6 5 4 4 5 6 5 4 3 3 4 6 8 9 10 10 10 9 7
6 6 6 11 12 12 9 6 6 4 4 4 5 6 6 6 7 7 7 6 7 4 7 6 6 5 5 5 3 4 4 4 4 5 5 6 6 6
5 4 3 7 11 12 9 6 7 4 3 4 4 5 6 6 6 7 7 6 5 5 8 7 5 6 7 6 5 5 4 4 4 4 4 4 5 7
3 3 3 6 8 8 9 9 7 5 5 5 5 6 5 5 5 5 5 5 4 5 7 6 5 6 6 6 7 7 6 5 5 5 5 4 4 5
6 5 6 7 6 5 6 6 6 6 6 6 5 4 4 5 5 5 5 5 4 3 4 5 5 7 5 7 8 8 6 7 7 6 5 4 4 4
4 4 5 5 6 6 6 7 7 7 7 6 5 4 4 5 5 5 5 5 5 6 5 4 3 4 5 7 8 8 7 6 6 6 5 5 4 4
3 4 5 6 6 7 7 7 7 7 6 6 5 5 5 5 5 5 5 6 6 7 6 6 7 6 4 3 4 8 7 7 6 6 5 5 4 4
4 5 5 5 6 6 6 6 7 7 6 6 6 5 5 5 6 6 6 6 6 7 7 7 8 8 8 7 4 5 7 7 7 6 5 4 5 5
5 5 5 5 5 5 5 5 5 6 6 6 5 5 6 6 7 7 7 7 8 7 7 7 7 7 7 7 6 5 7 8 7 6 5 3 4 6
5 5 4 4 4 4 4 4 5 5 6 5 5 6 6 7 7 7 7 9 8 8 9 7 6 7 5 5 6 5 4 4 6 6 7 6 5 4
3 3 3 3 3 3 3 4 4 5 5 5 5 6 6 6 7 8 8 8 7 7 7 6 7 6 5 6 7 8 6 5 5 7 5 5 5 6
2 2 2 2 2 2 3 4 5 5 5 5 5 6 6 6 6 7 8 8 8 9 8 8 7 5 5 6 7 7 9 8 5 4 3 4 8 8
Wind_Direction
255 267 269 271 262 255 251 239 228 219 219 207 185 185 163 130 154 165 154 172 177 185 192 198 202 205 209 213 217 220 224 229 229 229 230 228 226 225
234 242 252 264 271 260 255 245 228 217 228 210 196 169 167 157 168 164 150 160 174 185 192 196 199 201 205 207 210 213 218 224 228 229 230 231 229 226
242 237 235 234 256 270 270 264 248 223 231 229 192 155 156 142 149 153 147 158 171 186 191 194 194 195 197 200 204 207 213 221 226 228 229 229 229 228
238 236 237 234 231 249 257 260 261 246 221 218 204 175 166 152 154 165 172 173 164 176 180 182 183 185 188 193 198 201 208 215 222 226 228 228 225 224
242 235 232 226 226 229 240 242 243 254 244 213 209 189 180 177 171 180 178 158 160 153 153 159 167 168 170 176 183 188 195 201 207 213 219 220 219 219
243 237 232 223 221 216 227 228 227 236 245 224 203 193 191 183 177 175 168 164 163 156 134 133 137 138 143 149 155 159 167 176 185 193 200 206 209 210
241 236 234 225 222 214 222 215 214 214 224 216 206 203 195 184 184 183 177 157 154 153 139 137 139 134 131 131 131 130 132 139 144 147 153 166 180 183
240 239 238 227 219 212 212 212 208 208 215 221 212 212 207 199 188 182 171 168 172 163 147 139 135 120 110 99 106 113 116 119 122 120 118 117 117 121
234 228 242 236 215 210 210 212 216 218 212 213 219 227 234 217 191 185 185 182 174 161 145 133 120 102 90 85 97 104 110 114 114 111 108 104 100 98
231 221 226 241 238 217 212 214 212 212 210 214 217 223 236 249 222 208 187 161 137 149 142 128 126 109 97 86 84 99 107 111 112 111 108 103 96 91
234 228 221 228 229 217 215 220 218 217 216 215 208 205 208 220 211 188 178 166 167 165 155 131 133 118 105 95 91 93 98 105 110 114 115 112 108 98
232 230 229 226 224 211 211 216 223 221 219 205 202 205 205 208 204 197 192 185 171 166 168 142 148 140 126 116 125 123 103 98 106 112 117 120 118 108
237 226 223 216 210 205 206 209 216 221 220 212 204 201 200 201 201 200 201 197 186 174 168 156 157 155 135 138 141 142 136 135 126 117 111 109 108 113
245 249 223 204 198 197 200 203 195 205 225 215 208 209 205 203 200 197 196 199 199 179 168 166 158 163 145 144 145 150 149 150 147 144 143 125 104 111
253 257 212 183 185 196 208 197 191 206 218 221 215 212 207 198 185 179 181 177 176 173 170 177 162 158 154 150 148 155 154 162 165 159 156 154 145 138
237 226 198 184 197 208 188 192 208 216 211 219 217 215 199 185 181 171 173 168 164 159 157 166 164 157 155 147 148 155 158 161 168 166 158 155 155 155
220 210 205 195 204 210 206 200 204 208 214 219 211 207 199 188 178 172 170 166 168 165 160 157 142 126 135 145 150 157 159 154 161 162 154 153 159 160
226 222 219 216 215 213 210 208 204 206 207 208 207 199 196 188 177 173 169 172 171 165 164 157 145 129 118 90 146 159 161 159 157 157 158 152 156 152
229 232 227 222 222 220 213 209 204 202 200 203 201 193 189 187 178 174 173 172 170 164 161 160 161 158 159 158 164 173 158 153 152 157 167 159 154 152
234 234 229 226 227 221 216 210 200 194 193 197 193 190 187 186 178 174 175 173 167 161 160 164 172 171 167 158 147 155 161 155 156 161 164 149 118 121
232 232 229 223 225 218 213 203 195 190 187 190 193 187 185 181 177 173 170 168 164 162 165 170 170 156 128 122 131 135 141 149 156 159 160 148 142 145
249 247 240 225 215 205 201 198 195 187 182 189 191 184 182 176 172 170 168 165 163 160 157 152 150 153 149 153 152 147 141 134 113 110 119 147 161 171
249 260 255 234 201 185 189 189 187 186 185 187 187 179 175 170 165 165 163 163 162 157 154 153 156 162 163 157 150 148 148 150 148 135 93 75 110 123